User: anonymous   Login
Location: Cherry Springs State Park
(41.6616°N, 77.8240°W)
Time: 18:49:40
(UTC-05:00)
Language:

Cosmos 1437 - Orbit

View from above orbital plane
View from above orbital plane
View from above satellite
View from above satellite

Ground track
Ground track

The orbit data is extracted from the following two-line orbital elements,

1 13770U 83003A   14353.60485178  .00019068  00000-0  56237-3 0  7300
2 13770 081.1619 174.9016 0008985 198.8703 226.6290 15.34842555745971
Epoch (UTC): 19 December 2014 14:30:59
Eccentricity: 0.0008985
inclination: 81.1619°
perigee height: 455 km
apogee height: 467 km
right ascension of ascending node: 174.9016°
argument of perigee: 198.8703°
revolutions per day: 15.34842555
mean anomaly at epoch: 226.6290°
orbit number at epoch: 74597

The dashed part of the orbit path shows where the satellite is in the earth's shadow,  

DLR